Erie, CO

3:04 PM MDT on May 23, 2017 (GMT -0600)
Erie Municipal Airport

Weather History for KEIK - August, 2013

Change the Weather History Date:

Saturday, August 31, 2013

  Actual Average (KBJC) Record (KBJC)
Temperature  
Mean Temperature 76 °F -  
Max Temperature 92 °F 82 °F 95 °F (2011)
Min Temperature 59 °F 57 °F 48 °F (2005)
Cooling Degree Days 10    
Growing Degree Days 26 (Base 50)    
Moisture  
Dew Point 47 °F    
Average Humidity 41    
Maximum Humidity 76    
Minimum Humidity 14    
Precipitation  
Precipitation 0.00 in - - ()
Sea Level Pressure  
Sea Level Pressure 30.12 in    
Wind  
Wind Speed 5 mph (WNW)    
Max Wind Speed 21 mph    
Max Gust Speed 36 mph    
Visibility 10 miles    
Events Thunderstorm    
Averages and records for this station are not official NWS values.
T = Trace of Precipitation, MM = Missing Value Source: NWS Daily Summary

Daily Weather History Graph

Daily Weather History Graph

Search for Another Location

Airport or City:

Trip Planner

Search our weather history database for the weather conditions in past years. The results will help you decide how hot, cold, wet, or windy it might be!

Date:

Astronomy

Aug. 31, 2013 Rise Set
Actual Time 6:27 AM MDT 7:32 PM MDT
Civil Twilight 5:59 AM MDT 8:00 PM MDT
Nautical Twilight 5:26 AM MDT 8:33 PM MDT
Astronomical Twilight 4:51 AM MDT 9:08 PM MDT
Moon 1:58 AM MDT (8/31) 4:32 PM MDT (8/31)
Length of Visible Light 14h 01m
Length of Day
13h 05m
Waning Crescent, 20% of the Moon is Illuminated
Aug 31
Waning Crescent
Sep 5
New
Sep 12
First Quarter
Sep 19
Full
Sep 26
Last Quarter

Hourly Weather History & Observations

Time (MDT) Temp. Dew Point Humidity Pressure Visibility Wind Dir Wind Speed Gust Speed Precip Events Conditions
12:14 AM 73.8 °F 45.7 °F 37% 30.12 in 10.0 mi SSW 4.6 mph - N/A   Clear
12:34 AM 73.6 °F 45.1 °F 36% 30.12 in 10.0 mi South 4.6 mph - N/A   Clear
12:54 AM 72.7 °F 45.3 °F 38% 30.12 in 10.0 mi Calm Calm - N/A   Clear
1:14 AM 72.1 °F 44.8 °F 37% 30.11 in 10.0 mi South 4.6 mph - N/A   Clear
1:34 AM 72.5 °F 44.1 °F 36% 30.11 in 10.0 mi SSW 4.6 mph - N/A   Clear
1:54 AM 72.5 °F 45.0 °F 37% 30.10 in 10.0 mi South 4.6 mph - N/A   Clear
2:14 AM 73.8 °F 43.9 °F 34% 30.10 in 10.0 mi SSW 3.5 mph - N/A   Clear
2:34 AM 74.7 °F 46.0 °F 36% 30.10 in 10.0 mi South 8.1 mph - N/A   Clear
2:54 AM 72.1 °F 46.9 °F 41% 30.10 in 10.0 mi SW 4.6 mph - N/A   Clear
3:14 AM 70.9 °F 46.9 °F 42% 30.10 in 10.0 mi Calm Calm - N/A   Clear
3:34 AM 64.4 °F 48.4 °F 56% 30.09 in 10.0 mi North 6.9 mph - N/A   Clear
3:54 AM 67.3 °F 47.5 °F 49% 30.10 in 10.0 mi Calm Calm - N/A   Clear
4:14 AM 63.3 °F 48.7 °F 59% 30.10 in 10.0 mi Calm Calm - N/A   Clear
4:34 AM 62.6 °F 48.9 °F 61% 30.11 in 10.0 mi NNW 3.5 mph - N/A   Clear
4:54 AM 64.0 °F 49.3 °F 59% 30.11 in 10.0 mi NW 5.8 mph - N/A   Clear
5:14 AM 63.3 °F 51.6 °F 66% 30.11 in 10.0 mi NW 5.8 mph - N/A   Clear
5:34 AM 61.5 °F 51.3 °F 69% 30.11 in 10.0 mi WNW 4.6 mph - N/A   Clear
5:54 AM 60.3 °F 51.1 °F 72% 30.12 in 10.0 mi West 4.6 mph - N/A   Clear
6:14 AM 59.0 °F 51.1 °F 75% 30.13 in 10.0 mi WNW 5.8 mph - N/A   Clear
6:34 AM 59.9 °F 52.3 °F 76% 30.13 in 10.0 mi WNW 6.9 mph - N/A   Clear
6:54 AM 61.7 °F 53.8 °F 75% 30.13 in 10.0 mi NW 4.6 mph - N/A   Clear
7:14 AM 62.6 °F 54.5 °F 75% 30.14 in 10.0 mi Calm Calm - N/A   Clear
7:34 AM 62.6 °F 54.9 °F 76% 30.15 in 10.0 mi Calm Calm - N/A   Clear
7:54 AM 64.8 °F 54.7 °F 70% 30.16 in 10.0 mi Calm Calm - N/A   Clear
8:14 AM 66.4 °F 54.9 °F 66% 30.15 in 10.0 mi NNE 3.5 mph - N/A   Clear
8:34 AM 68.7 °F 54.5 °F 60% 30.15 in 10.0 mi North 4.6 mph - N/A   Clear
8:54 AM 68.7 °F 54.1 °F 60% 30.15 in 10.0 mi Calm Calm - N/A   Clear
9:14 AM 73.0 °F 52.7 °F 49% 30.15 in 10.0 mi Calm Calm - N/A   Clear
9:34 AM 75.0 °F 51.3 °F 43% 30.14 in 10.0 mi South 4.6 mph - N/A   Clear
9:54 AM 77.5 °F 50.9 °F 39% 30.14 in 10.0 mi Calm Calm - N/A   Clear
10:14 AM 81.0 °F 48.2 °F 32% 30.14 in 10.0 mi SE 3.5 mph - N/A   Clear
10:34 AM 82.6 °F 45.7 °F 27% 30.14 in 10.0 mi Calm Calm - N/A   Clear
10:54 AM 84.0 °F 45.3 °F 26% 30.14 in 10.0 mi Calm Calm - N/A   Clear
11:14 AM 85.1 °F 45.1 °F 25% 30.13 in 10.0 mi Calm Calm - N/A   Clear
11:34 AM 86.4 °F 44.8 °F 23% 30.13 in 10.0 mi South 4.6 mph - N/A   Clear
11:54 AM 87.4 °F 44.1 °F 22% 30.13 in 10.0 mi Calm Calm - N/A   Clear
12:14 PM 88.0 °F 43.2 °F 21% 30.12 in 10.0 mi ESE 4.6 mph - N/A   Clear
12:34 PM 89.1 °F 43.3 °F 20% 30.11 in 10.0 mi South 3.5 mph - N/A   Clear
12:54 PM 91.2 °F 43.5 °F 19% 30.10 in 10.0 mi NE 5.8 mph - N/A   Clear
1:14 PM 91.8 °F 38.7 °F 16% 30.10 in 10.0 mi ENE 3.5 mph - N/A   Clear
1:34 PM 92.5 °F 37.4 °F 14% 30.09 in 10.0 mi NE 6.9 mph - N/A Thunderstorm Clear
1:54 PM 91.4 °F 36.7 °F 15% 30.09 in 10.0 mi North 4.6 mph - N/A   Clear
2:14 PM 90.7 °F 37.4 °F 15% 30.09 in 10.0 mi NNE 6.9 mph - N/A   Clear
2:34 PM 90.0 °F 38.5 °F 16% 30.09 in 10.0 mi North 9.2 mph - N/A   Clear
2:54 PM 88.3 °F 40.8 °F 19% 30.09 in 10.0 mi NNW 11.5 mph - N/A   Mostly Cloudy
3:14 PM 83.5 °F 44.8 °F 26% 30.10 in 10.0 mi NW 20.7 mph 25.3 mph N/A   Mostly Cloudy
3:34 PM 82.6 °F 46.4 °F 28% 30.11 in 10.0 mi NW 17.3 mph 25.3 mph N/A   Scattered Clouds
3:54 PM 80.4 °F 46.8 °F 31% 30.12 in 10.0 mi WNW 20.7 mph 28.8 mph N/A   Mostly Cloudy
4:14 PM 78.6 °F 46.6 °F 32% 30.11 in 10.0 mi West 18.4 mph 25.3 mph N/A   Overcast
4:34 PM 79.2 °F 45.7 °F 31% 30.11 in 10.0 mi West 12.7 mph 21.9 mph N/A   Scattered Clouds
4:54 PM 79.9 °F 45.3 °F 29% 30.11 in 10.0 mi West 16.1 mph 24.2 mph N/A   Mostly Cloudy
5:14 PM 80.1 °F 45.7 °F 30% 30.10 in 10.0 mi WSW 15.0 mph 35.7 mph N/A   Mostly Cloudy
5:34 PM 79.2 °F 46.4 °F 31% 30.11 in 10.0 mi West 15.0 mph 19.6 mph N/A   Mostly Cloudy
5:54 PM 77.9 °F 46.9 °F 33% 30.11 in 10.0 mi WNW 9.2 mph - N/A   Overcast
6:14 PM 77.0 °F 48.2 °F 36% 30.11 in 10.0 mi WNW 9.2 mph 18.4 mph N/A   Scattered Clouds
6:34 PM 77.7 °F 46.2 °F 33% 30.12 in 10.0 mi WNW 11.5 mph 24.2 mph N/A   Clear
6:54 PM 78.8 °F 45.1 °F 30% 30.11 in 10.0 mi NW 9.2 mph 20.7 mph N/A   Clear
7:14 PM 78.1 °F 45.7 °F 32% 30.12 in 10.0 mi WNW 9.2 mph - N/A   Scattered Clouds
7:34 PM 77.0 °F 45.0 °F 32% 30.11 in 10.0 mi West 5.8 mph - N/A   Scattered Clouds
7:54 PM 76.1 °F 45.9 °F 34% 30.12 in 10.0 mi Calm Calm - N/A   Clear
8:14 PM 74.5 °F 46.2 °F 37% 30.13 in 10.0 mi Calm Calm - N/A   Clear
8:34 PM 74.1 °F 44.8 °F 35% 30.13 in 10.0 mi Calm Calm - N/A   Clear
8:54 PM 73.6 °F 44.8 °F 36% 30.14 in 10.0 mi Calm Calm - N/A   Clear
9:14 PM 72.5 °F 45.7 °F 38% 30.13 in 10.0 mi Calm Calm - N/A   Clear
9:34 PM 69.8 °F 46.0 °F 43% 30.13 in 10.0 mi Calm Calm - N/A   Clear
9:54 PM 67.5 °F 47.1 °F 48% 30.13 in 10.0 mi SSW 5.8 mph - N/A   Clear
10:14 PM 68.2 °F 48.0 °F 48% 30.14 in 10.0 mi Calm Calm - N/A   Clear
10:34 PM 66.2 °F 48.4 °F 53% 30.14 in 10.0 mi Calm Calm - N/A   Clear
10:54 PM 65.8 °F 48.2 °F 53% 30.15 in 10.0 mi Calm Calm - N/A   Scattered Clouds
11:14 PM 64.9 °F 49.8 °F 58% 30.16 in 10.0 mi Calm Calm - N/A   Overcast
11:34 PM 65.1 °F 49.5 °F 57% 30.17 in 10.0 mi Calm Calm - N/A   Overcast
11:54 PM 66.7 °F 48.2 °F 51% 30.17 in 10.0 mi Calm Calm - N/A   Scattered Clouds